User: anonymous   Login
Location: Petruro
(41.0333°N, 14.7833°E)
Time: 04:16:54
(UTC+00:00)
Language:

Cosmos 405 Rocket - Orbit

View from above orbital plane
View from above orbital plane
View from above satellite
View from above satellite

Ground track
Ground track

The orbit data is extracted from the following two-line orbital elements,

1 05118U 71028B   21261.55343516  .00001175  00000-0  59472-4 0  9992
2 05118  81.2580 170.0338 0047516 108.8739 251.7651 15.15155329739162
Epoch (UTC): 18 September 2021 13:16:56
Eccentricity: 0.0047516
inclination: 81.2580°
perigee height: 488 km
apogee height: 553 km
right ascension of ascending node: 170.0338°
argument of perigee: 108.8739°
revolutions per day: 15.15155329
mean anomaly at epoch: 251.7651°
orbit number at epoch: 73916

The dashed part of the orbit path shows where the satellite is in the earth's shadow,  

DLR